COSMOS 2251 DEB, 34571

Orbit data source: Space-Track

COSMOS 2251 DEB, 34571 is space debris in LEO originally from a launch on Wed, 16 Jun 1993 UTC launched from the Plesetsk Missile And Space Complex (PKMTR). The debris from Iridium 33, an American commercial communications satellite, has been tracked extensively since its accidental collision with the defunct Russian satellite Cosmos 2251 in 2009. This event, occurring at high speed in low Earth orbit (LEO), generated thousands of pieces of space debris, significantly increasing the risk of further collisions. The Iridium 33 debris cloud has impacted space traffic management and orbital debris mitigation strategies, making it a subject of ongoing study in space situational awareness.

Loading next visibility...
Identifier
34571, 1993-036VH
Orbit
LEO
Country
Flag of CISCIS
Related business
Manufacturer
Unknown
Mission
Spacecraft
Bus & Motor
Unknown
Mass
Unknown
Launch date (UTC)
1993-06-16 (33 years ago)
Launch vehicle
Unknown
Launch site
Plesetsk Missile And Space Complex (PKMTR)
Object type
Payload
Rocket body
Debris
Shape & HBR
Unknown shape, 0.1 m
Radar Cross Section
Small (<0.1 m²)

Expand to show TLE details & history
Last TLE update: 21 hours ago

TLE from 21 hours ago
0 COSMOS 2251 DEB
1 34571U 93036VH  25351.95701444  .00006986  00000-0  18023-2 0  9996
2 34571  74.0374 172.6548 0065511 206.4369 153.3444 14.48891959873693
Epoch: 2025-12-17T22:58Z
TLE epoch observation values (Epoch: 2025-12-17T22:58:06.047Z)
Latitude
-0.0001°
Longitude
101.31015°
Altitude
773.577 km
Speed
7.446 km/s
True Right ascension
11h 30m 37s
True Declination
0° 00' 00"
Sunlit
Object was in daylight at epoch
Visualization orbit readout
Latitude
Unknown
Longitude
Unknown
Altitude
Unknown
Speed
Unknown
Apparent Right ascension
Unknown
Apparent Declination
Unknown
Sunlit
N/A
Visualization observer readout
Local Sidereal Time
19:06:58
Azimuth
Unknown
Elevation
Unknown
Doppler factor
Unknown
Orbital elements
Apogee altitude
773.425 km
Perigee altitude
680.334 km
Semi-major axis
7,105.016 km
Eccentricity
0.00655
Inclination
74.0374°
RAAN
172.6548°
Arg. of periapsis
206.4369°
True anomaly
153.67873°
Mean anomaly
153.3444°
Eccentric anomaly
153.51181°
Mean motion
3.62406 °/min
Orbital period
99.34 mins
BSTAR
0.0018023
Loading maneuver chart data...
Computing Atmospheric mass density...

Documentation

Showing up to 5 results
|